| time (UTC) | temp C | wind direction | speed KPH | gust KPH | rain 1hr cm | rain 24hr cm | rain mn cm | humidity % | barometer mb |
| 20260510180053 | 31 | 169 | 3.2 | 20.9 | 0.00 | 0.00 | 0.00 | 48 | 1012.9 |
| 20260510174553 | 31 | 141 | 8.0 | 20.9 | 0.00 | 0.00 | 0.00 | 49 | 1012.9 |
| 20260510173102 | 30 | 123 | 6.4 | 16.1 | 0.00 | 0.00 | 0.00 | 52 | 1013.0 |
| 20260510171556 | 30 | 0 | 3.2 | 17.7 | 0.00 | 0.00 | 0.00 | 53 | 1013.2 |
| 20260510170101 | 29 | 116 | 4.8 | 16.1 | 0.00 | 0.00 | 0.00 | 55 | 1013.2 |
| 20260510164553 | 29 | 118 | 4.8 | 16.1 | 0.00 | 0.00 | 0.00 | 57 | 1013.2 |
| 20260510163048 | 28 | 102 | 4.8 | 17.7 | 0.00 | 0.00 | 0.00 | 57 | 1013.2 |
| 20260510161552 | 28 | 208 | 6.4 | 19.3 | 0.00 | 0.00 | 0.00 | 59 | 1013.0 |
| 20260510160051 | 28 | 136 | 8.0 | 19.3 | 0.00 | 0.00 | 0.00 | 60 | 1013.3 |
| 20260510154549 | 27 | 209 | 4.8 | 11.3 | 0.00 | 0.00 | 0.00 | 62 | 1013.0 |
| 20260510153048 | 27 | 105 | 4.8 | 12.9 | 0.00 | 0.00 | 0.00 | 62 | 1013.4 |
| 20260510151552 | 26 | 159 | 3.2 | 11.3 | 0.00 | 0.00 | 0.00 | 67 | 1013.5 |
| 20260510150051 | 26 | 0 | 0.0 | 0.0 | 0.00 | 0.00 | 0.00 | 68 | 1013.1 |
| 20260510144554 | 26 | 0 | 0.0 | 11.3 | 0.00 | 0.00 | 0.00 | 70 | 1013.2 |
| 20260510143055 | 24 | 167 | 6.4 | 20.9 | 0.00 | 0.00 | 0.00 | 73 | 1012.5 |
| 20260510141600 | 23 | 196 | 1.6 | 16.1 | 0.00 | 0.00 | 0.00 | 74 | 1012.1 |
| 20260510140058 | 23 | 189 | 4.8 | 22.5 | 0.00 | 0.00 | 0.00 | 76 | 1011.7 |
| 20260510134604 | 23 | 168 | 4.8 | 20.9 | 0.00 | 0.00 | 0.00 | 77 | 1012.0 |
| 20260510133110 | 22 | 225 | 8.0 | 22.5 | 0.00 | 0.00 | 0.00 | 78 | 1011.9 |
| 20260510131601 | 22 | 250 | 8.0 | 19.3 | 0.00 | 0.00 | 0.00 | 79 | 1011.9 |
| 20260510130049 | 22 | 0 | 4.8 | 17.7 | 0.00 | 0.00 | 0.00 | 79 | 1011.7 |
| 20260510124559 | 21 | 196 | 6.4 | 24.1 | 0.00 | 0.00 | 0.00 | 80 | 1011.5 |
| 20260510123110 | 21 | 150 | 6.4 | 19.3 | 0.00 | 0.00 | 0.00 | 80 | 1011.3 |
| 20260510121551 | 21 | 249 | 4.8 | 17.7 | 0.00 | 0.00 | 0.00 | 80 | 1011.3 |
| 20260510120052 | 21 | 274 | 4.8 | 14.5 | 0.00 | 0.00 | 0.00 | 80 | 1011.1 |
| 20260510114551 | 21 | 198 | 3.2 | 19.3 | 0.00 | 0.00 | 0.00 | 79 | 1011.0 |
| 20260510113053 | 21 | 207 | 4.8 | 17.7 | 0.00 | 0.00 | 0.00 | 79 | 1010.9 |
| 20260510111551 | 21 | 167 | 4.8 | 16.1 | 0.00 | 0.00 | 0.00 | 78 | 1010.8 |
| 20260510110052 | 21 | 0 | 4.8 | 17.7 | 0.00 | 0.00 | 0.00 | 77 | 1010.8 |
| 20260510104550 | 21 | 136 | 4.8 | 16.1 | 0.00 | 0.00 | 0.00 | 77 | 1010.7 |
| 20260510103050 | 21 | 0 | 3.2 | 11.3 | 0.00 | 0.00 | 0.00 | 76 | 1010.6 |
| 20260510101552 | 21 | 231 | 3.2 | 11.3 | 0.00 | 0.00 | 0.00 | 76 | 1010.7 |
| 20260510100055 | 21 | 0 | 0.0 | 9.7 | 0.00 | 0.00 | 0.00 | 75 | 1010.5 |
| 20260510094552 | 21 | 168 | 1.6 | 14.5 | 0.00 | 0.00 | 0.00 | 75 | 1010.6 |
| 20260510093051 | 21 | 199 | 1.6 | 6.4 | 0.00 | 0.00 | 0.00 | 75 | 1010.4 |
| 20260510091551 | 22 | 136 | 1.6 | 8.0 | 0.00 | 0.00 | 0.00 | 74 | 1010.2 |
| 20260510090057 | 22 | 170 | 3.2 | 12.9 | 0.00 | 0.00 | 0.00 | 73 | 1010.0 |
| 20260510084550 | 22 | 182 | 3.2 | 11.3 | 0.00 | 0.00 | 0.00 | 73 | 1010.1 |
| 20260510083054 | 22 | 165 | 1.6 | 8.0 | 0.00 | 0.00 | 0.00 | 73 | 1010.0 |
| 20260510081554 | 21 | 200 | 3.2 | 11.3 | 0.00 | 0.00 | 0.00 | 73 | 1010.1 |
| 20260510080056 | 21 | 224 | 1.6 | 8.0 | 0.00 | 0.00 | 0.00 | 72 | 1010.1 |
| 20260510074557 | 21 | 148 | 3.2 | 9.7 | 0.00 | 0.00 | 0.00 | 71 | 1010.2 |
| 20260510073106 | 21 | 194 | 0.0 | 8.0 | 0.00 | 0.00 | 0.00 | 71 | 1010.3 |
| 20260510071559 | 21 | 195 | 0.0 | 4.8 | 0.00 | 0.00 | 0.00 | 70 | 1010.4 |
| 20260510070054 | 21 | 193 | 0.0 | 4.8 | 0.00 | 0.00 | 0.00 | 70 | 1010.4 |
| 20260510064556 | 22 | 212 | 0.0 | 6.4 | 0.00 | 0.00 | 0.00 | 70 | 1010.4 |
| 20260510063058 | 22 | 211 | 1.6 | 8.0 | 0.00 | 0.00 | 0.00 | 69 | 1010.7 |
| 20260510061550 | 22 | 212 | 1.6 | 9.7 | 0.00 | 0.00 | 0.00 | 68 | 1010.8 |
| 20260510060049 | 22 | 0 | 0.0 | 9.7 | 0.00 | 0.00 | 0.00 | 68 | 1010.9 |
| 20260510054551 | 22 | 193 | 3.2 | 8.0 | 0.00 | 0.00 | 0.00 | 67 | 1011.0 |
| 20260510053050 | 23 | 207 | 1.6 | 11.3 | 0.00 | 0.00 | 0.00 | 66 | 1010.9 |
| 20260510051555 | 23 | 0 | 3.2 | 8.0 | 0.00 | 0.00 | 0.00 | 63 | 1011.0 |
| 20260510050049 | 23 | 198 | 1.6 | 8.0 | 0.00 | 0.00 | 0.00 | 61 | 1011.0 |
| 20260510044553 | 23 | 227 | 1.6 | 8.0 | 0.00 | 0.00 | 0.00 | 60 | 1011.0 |
| 20260510043105 | 23 | 193 | 0.0 | 6.4 | 0.00 | 0.00 | 0.00 | 61 | 1011.1 |
| 20260510041555 | 25 | 163 | 0.0 | 6.4 | 0.00 | 0.00 | 0.00 | 58 | 1011.0 |
| 20260510034551 | 26 | 112 | 0.0 | 8.0 | 0.00 | 0.00 | 0.00 | 54 | 1010.9 |
| 20260510033052 | 26 | 178 | 1.6 | 8.0 | 0.00 | 0.00 | 0.00 | 53 | 1010.9 |
| 20260510031556 | 26 | 155 | 1.6 | 9.7 | 0.00 | 0.00 | 0.00 | 55 | 1010.7 |
| 20260510030048 | 26 | 139 | 1.6 | 9.7 | 0.00 | 0.00 | 0.00 | 56 | 1010.6 |
| 20260510024551 | 26 | 128 | 3.2 | 9.7 | 0.00 | 0.00 | 0.00 | 54 | 1010.3 |
| 20260510023053 | 27 | 133 | 3.2 | 9.7 | 0.00 | 0.00 | 0.00 | 51 | 1010.2 |
| 20260510021550 | 28 | 121 | 3.2 | 11.3 | 0.00 | 0.00 | 0.00 | 47 | 1010.1 |
| 20260510020049 | 28 | 131 | 3.2 | 9.7 | 0.00 | 0.00 | 0.00 | 45 | 1009.8 |
| 20260510014559 | 29 | 140 | 4.8 | 11.3 | 0.00 | 0.00 | 0.00 | 42 | 1009.6 |
| 20260510013055 | 30 | 136 | 3.2 | 8.0 | 0.00 | 0.00 | 0.00 | 40 | 1009.5 |
| 20260510011551 | 30 | 0 | 0.0 | 9.7 | 0.00 | 0.00 | 0.00 | 40 | 1009.3 |
| 20260510010051 | 31 | 0 | 0.0 | 8.0 | 0.00 | 0.00 | 0.00 | 37 | 1009.2 |
| 20260510004549 | 31 | 138 | 3.2 | 11.3 | 0.00 | 0.00 | 0.00 | 37 | 1009.2 |
| 20260510003057 | 31 | 223 | 1.6 | 8.0 | 0.00 | 0.00 | 0.00 | 37 | 1009.1 |
| 20260510001557 | 32 | 156 | 1.6 | 11.3 | 0.00 | 0.00 | 0.00 | 33 | 1009.1 |
| 20260510000055 | 32 | 196 | 3.2 | 11.3 | 0.00 | 0.00 | 0.00 | 35 | 1009.0 |
| 20260509234555 | 32 | 0 | 1.6 | 8.0 | 0.00 | 0.00 | 0.00 | 33 | 1008.9 |
| 20260509233055 | 32 | 180 | 3.2 | 11.3 | 0.00 | 0.00 | 0.00 | 32 | 1009.1 |
| 20260509231558 | 32 | 188 | 3.2 | 14.5 | 0.00 | 0.00 | 0.00 | 34 | 1009.1 |
| 20260509230056 | 32 | 264 | 4.8 | 12.9 | 0.00 | 0.00 | 0.00 | 32 | 1009.1 |
| 20260509224558 | 32 | 241 | 0.0 | 11.3 | 0.00 | 0.00 | 0.00 | 36 | 1009.2 |
| 20260509223050 | 32 | 111 | 3.2 | 14.5 | 0.00 | 0.00 | 0.00 | 34 | 1009.1 |
| 20260509221602 | 32 | 106 | 6.4 | 16.1 | 0.00 | 0.00 | 0.00 | 34 | 1009.2 |
| 20260509220048 | 32 | 183 | 4.8 | 12.9 | 0.00 | 0.00 | 0.00 | 39 | 1009.4 |
| 20260509214554 | 32 | 205 | 4.8 | 14.5 | 0.00 | 0.00 | 0.00 | 39 | 1009.5 |
| 20260509213053 | 32 | 306 | 3.2 | 12.9 | 0.00 | 0.00 | 0.00 | 37 | 1009.7 |
| 20260509211559 | 31 | 238 | 4.8 | 14.5 | 0.00 | 0.00 | 0.00 | 35 | 1009.9 |
| 20260509210114 | 31 | 180 | 3.2 | 12.9 | 0.00 | 0.00 | 0.00 | 39 | 1010.2 |
| 20260509204559 | 31 | 217 | 4.8 | 14.5 | 0.00 | 0.00 | 0.00 | 42 | 1010.4 |
| 20260509203056 | 31 | 207 | 6.4 | 20.9 | 0.00 | 0.00 | 0.00 | 43 | 1010.6 |
| 20260509201603 | 31 | 274 | 3.2 | 11.3 | 0.00 | 0.00 | 0.00 | 45 | 1010.8 |
| 20260509200106 | 31 | 232 | 3.2 | 12.9 | 0.00 | 0.00 | 0.00 | 45 | 1011.0 |
| 20260509194613 | 30 | 211 | 4.8 | 14.5 | 0.00 | 0.00 | 0.00 | 46 | 1011.2 |
| 20260509193058 | 30 | 291 | 4.8 | 12.9 | 0.00 | 0.00 | 0.00 | 45 | 1011.5 |
| 20260509191603 | 30 | 150 | 6.4 | 16.1 | 0.00 | 0.00 | 0.00 | 48 | 1011.5 |
| 20260509190108 | 29 | 243 | 1.6 | 14.5 | 0.00 | 0.00 | 0.00 | 53 | 1011.6 |
| 20260509184554 | 28 | 199 | 3.2 | 14.5 | 0.00 | 0.00 | 0.00 | 53 | 1011.9 |
| 20260509183100 | 28 | 215 | 4.8 | 14.5 | 0.00 | 0.00 | 0.00 | 52 | 1012.0 |
| 20260509181559 | 28 | 193 | 4.8 | 14.5 | 0.00 | 0.00 | 0.00 | 53 | 1012.3 |